User: anonymous   Login
Location: Unspecified
(0.0000°N, 0.0000°E)
Time: 00:29:16
(UTC+00:00)
Language:

USA 267 - Orbit

View from above orbital plane
View from above orbital plane
View from above satellite
View from above satellite

Ground track
Ground track

The orbit data is extracted from the following two-line orbital elements,

1 41334U 16010A   18339.48964011 0.00000000  00000-0  00000-0 0    03
2 41334 122.9935 309.7264 0003098 154.1525 205.8475 13.41420573    03
Epoch (UTC): 05 December 2018 11:45:04
Eccentricity: 0.0003098
inclination: 122.9935°
perigee height: 1101 km
apogee height: 1106 km
right ascension of ascending node: 309.7264°
argument of perigee: 154.1525°
revolutions per day: 13.41420573
mean anomaly at epoch: 205.8475°
orbit number at epoch: 0

The dashed part of the orbit path shows where the satellite is in the earth's shadow,  

DLR